Location: Unspecified
(42.3650°N, 71.1030°W)
Time: 15:45:58
(UTC+00:00)

S-56A Canister/Altair - Pass Details

Date: 02 July 2024
Orbit: 638 x 2487 km, 38.9° (Epoch: 20 July)

Event Time Altitude Azimuth Distance (km) Brightness Sun altitude
Rises 06:28:11 0° 274° (W) 5,119 11.5 -20.7°
Reaches altitude 10° 06:33:28 10° 253° (WSW) 4,476 11.0 -20.3°
Enters shadow 06:34:36 12° 248° (WSW) 4,403 10.9 -20.2°
